Location: Christian Reformed Church
(43.0975°N, 93.8113°W)
Time: 05:15:49
(UTC+00:00)

Cosmos 1833 - Pass Details

Date: 13 December 2025
Orbit: 832 x 866 km, 70.9° (Epoch: 13 January)

Event Time Altitude Azimuth Distance (km) Brightness Sun altitude
Rises 12:00:22 0° 212° (SSW) 3,373 7.2 -17.2°
Reaches altitude 10° 12:02:49 10° 215° (SW) 2,446 6.4 -16.8°
Maximum altitude 12:08:23 65° 297° (WNW) 926 4.1 -15.8°
Drops below altitude 10° 12:14:03 10° 20° (NNE) 2,485 6.7 -14.8°
Sets 12:16:33 0° 23° (NNE) 3,430 7.4 -14.4°
